Weather History for Kars, Turkey

Change the Weather History Date:

Monday, February 18, 2013

  Actual Average Record
Temperature  
Mean Temperature 15 °F -  
Max Temperature 24 °F 32 °F - ()
Min Temperature 6 °F 14 °F - ()
Degree Days  
Heating Degree Days 50    
Moisture  
Dew Point 16 °F    
Average Humidity 91    
Maximum Humidity 100    
Minimum Humidity 68    
Precipitation  
Precipitation 0.03 in 0.03 in - ()
Sea Level Pressure  
Sea Level Pressure 29.90 in    
Wind  
Wind Speed 1 mph ()    
Max Wind Speed 7 mph    
Max Gust Speed -    
Visibility 3.9 miles    
Events Fog , Snow    
T = Trace of Precipitation, MM = Missing Value Source: Averaged Metar Reports

Daily Weather History Graph

Daily Weather History Graph

Search for Another Location

Airport:

Trip Planner

Search our weather history database for the weather conditions in past years. The results will help you decide how hot, cold, wet, or windy it might be!

Date:

Astronomy

Feb. 18, 2013 Rise Set
Actual Time 5:57 AM EET 4:46 PM EET
Civil Twilight 5:29 AM EET 5:14 PM EET
Nautical Twilight 4:57 AM EET 5:45 PM EET
Astronomical Twilight 4:26 AM EET 6:17 PM EET
Moon 10:15 AM EET (2/18) 12:17 AM EET (2/18)
Length of Visible Light 11h 44m
Length of Day
10h 48m
First Quarter, 55% of the Moon is Illuminated
Feb 18
First Quarter
Feb 25
Full
Mar 4
Last Quarter
Mar 11
New
Mar 19
First Quarter

Hourly Weather History & Observations

Time (EET) Temp. Windchill Dew Point Humidity Pressure Visibility Wind Dir Wind Speed Gust Speed Precip Events Conditions
12:50 AM 14.0 °F - 12.2 °F 93% 29.92 in 3.1 mi Calm Calm - N/A Snow Light Snow
1:50 AM 15.8 °F - 14.0 °F 93% 29.92 in 3.1 mi Calm Calm - N/A Snow Light Snow
2:00 AM 15 °F - 15 °F 100%  in 3 mi Calm Calm - - Snow Light Snow
2:50 AM 15.8 °F - 14.0 °F 93% 29.89 in 3.1 mi Calm Calm - N/A Snow Light Snow
3:50 AM 12.2 °F - 10.4 °F 92% 29.89 in 3.1 mi Calm Calm - N/A Snow Light Snow
4:50 AM 8.6 °F - 6.8 °F 92% 29.89 in 3.1 mi NNW 2.3 mph - N/A Snow Light Snow
5:50 AM 8.6 °F - 5.0 °F 85% 29.92 in 0.6 mi Calm Calm - N/A Fog Light Freezing Fog
6:50 AM 14.0 °F - 14.0 °F 100% 29.92 in 1.2 mi Calm Calm - N/A   Mostly Cloudy
7:50 AM 10.4 °F - 10.4 °F 100% 29.95 in 6.2 mi Calm Calm - N/A   Mostly Cloudy
8:00 AM 11 °F - 11 °F 100%  in 6 mi Calm Calm - -   Partly Cloudy
8:50 AM 14.0 °F 6.5 °F 12.2 °F 93% 29.92 in 6.2 mi NW 4.6 mph - N/A   Mostly Cloudy
9:50 AM 15.8 °F - 15.8 °F 100% 29.92 in 6.2 mi Variable 1.2 mph - N/A   Mostly Cloudy
10:50 AM 21.2 °F - 15.8 °F 80% 29.92 in 6.2 mi Variable 2.3 mph - N/A   Scattered Clouds
11:50 AM 23.0 °F - 15.8 °F 74% 29.92 in 6.2 mi Calm Calm - N/A   Partly Cloudy
12:50 PM 24.8 °F - 15.8 °F 69% 29.89 in 6.2 mi Calm Calm - N/A   Mostly Cloudy
1:50 PM 24.8 °F - 17.6 °F 74% 29.89 in 5.0 mi Variable 1.2 mph - N/A   Mostly Cloudy
2:00 PM 24 °F - 18 °F 68%  in 5 mi ENE 1.2 mph - -   Mist
2:50 PM 23.0 °F 14.7 °F 19.4 °F 86% 29.89 in 4.3 mi NE 6.9 mph - N/A   Mostly Cloudy
3:50 PM 23.0 °F 17.0 °F 17.6 °F 80% 29.89 in 4.3 mi NE 4.6 mph - N/A   Overcast
4:50 PM 21.2 °F 16.4 °F 17.6 °F 86% 29.89 in 4.3 mi East 3.5 mph - N/A   Overcast
5:50 PM 23.0 °F 18.4 °F 19.4 °F 86% 29.92 in 6.2 mi NNE 3.5 mph - N/A   Overcast
6:50 PM 21.2 °F 12.6 °F 21.2 °F 100% 29.89 in 3.7 mi NE 6.9 mph - N/A Snow Light Snow
7:50 PM 21.2 °F 12.6 °F 21.2 °F 100% 29.89 in 1.6 mi NNE 6.9 mph - N/A Snow Light Snow
8:00 PM 21 °F - 21 °F 100%  in 2 mi NNE 6.9 mph - - Snow Light Snow
8:50 PM 21.2 °F 14.9 °F 21.2 °F 100% 29.89 in 1.9 mi North 4.6 mph - N/A Snow Light Snow
9:50 PM 23.0 °F - 21.2 °F 93% 29.86 in 1.9 mi Variable 1.2 mph - N/A Snow Light Snow
10:50 PM 21.2 °F - 21.2 °F 100% 29.86 in 1.9 mi Calm Calm - N/A Snow Light Snow
11:50 PM 19.4 °F - 19.4 °F 100% 29.86 in 2.5 mi Calm Calm - N/A Snow Light Snow